Погода в Замостье

Россия / Воронежская область     50°01′12″N   40°49′59″E
темп.,
°C
ветер,
м/с
пор.,
м/с
влажн.,
%
обл.,
%
осадки,
мм/ч
давл.,
гПа
погр.,
м
6 мая, чт
чт600:00+9ю22634 0.0 101718
03:00+8ю22625 0.0 101714
06:00+9ююв2566100 0.0 1017109
09:00+14ю5853100 0.0 1016708
12:00+17ю7844100 0.0 10151736
15:00+19ю684194 0.0 10142126
18:00+17ю4854100 0.0 1013307
21:00+13ююв3766100 0.0 1014119
7 мая, пт
пт700:00+12ююв3570100 0.0 101383
03:00+11ююв3374100 0.0 101340
06:00+11юз2576100 0.0 1013177
09:00+14сз3470100 0.1 1014577
12:00+14сз5572100 0.4 1015739
15:00+15сз556096 0.6 10161354
18:00+16сз13510 0.0 10161232
21:00+11ююв116731 0.0 101711
8 мая, сб
сб800:00+10юв227446 0.0 101713
03:00+8юв33845 0.0 101637
06:00+10юв388797 0.0 1015207
09:00+16ю6968100 0.0 1014766
12:00+20ююз71048100 0.0 10131595
15:00+20ююз61056100 0.0 10111257
18:00+20ююз496099 0.0 1010614
21:00+15ююз31075100 0.1 1010220
9 мая, вс
вс900:00+11ссз6986100 0.0 1012449
03:00+9ссз71178100 0.0 1013665
06:00+7с61180100 0.1 1013675
09:00+5ссз81293100 6.4 1014734
12:00+3с81695100 10.6 1014751
15:00+4ссз81696100 20.7 1016807
18:00+5с81592100 5.4 10161024
21:00+6с91691100 9.3 10171067
10 мая, пн
пн1000:00+6ссз81491100 4.8 10171117
03:00+6ссз101689100 6.1 10161028
06:00+6с101792100 2.6 10161077
09:00+7с101792100 5.6 1016927
12:00+7с101791100 1.9 1016784
15:00+7с91794100 2.6 1015682
18:00+9ссв61296100 2.5 1015509
21:00+10всв61193100 3.3 1016611